TimeEEST,TemperatureF,Dew PointF,Humidity,Sea Level PressureIn,VisibilityMPH,Wind Direction,Wind SpeedMPH,Gust SpeedMPH,PrecipitationIn,Events,Conditions,WindDirDegrees,DateUTC
3:50 AM,66.2,57.2,73,29.86,6.2,NNW,4.6,-,N/A,,Partly Cloudy,330,2013-06-14 00:50:00
4:20 AM,66.2,57.2,73,29.86,6.2,NNW,4.6,-,N/A,,Partly Cloudy,330,2013-06-14 01:20:00
4:50 AM,64.4,59.0,83,29.86,6.2,NNW,4.6,-,N/A,,Scattered Clouds,330,2013-06-14 01:50:00
5:20 AM,64.4,59.0,83,29.86,6.2,NNW,4.6,-,N/A,,Scattered Clouds,330,2013-06-14 02:20:00
5:50 AM,64.4,57.2,77,29.86,6.2,Calm,Calm,-,N/A,,Partly Cloudy,0,2013-06-14 02:50:00
6:20 AM,64.4,57.2,77,29.86,6.2,Calm,Calm,-,N/A,,Partly Cloudy,0,2013-06-14 03:20:00
6:50 AM,66.2,59.0,78,29.89,6.2,Calm,Calm,-,N/A,,Scattered Clouds,0,2013-06-14 03:50:00
7:20 AM,68.0,59.0,73,29.89,6.2,Calm,Calm,-,N/A,,Scattered Clouds,0,2013-06-14 04:20:00
7:50 AM,69.8,59.0,68,29.89,6.2,North,4.6,-,N/A,,Scattered Clouds,350,2013-06-14 04:50:00
8:20 AM,71.6,59.0,64,29.89,6.2,North,4.6,-,N/A,,Scattered Clouds,350,2013-06-14 05:20:00
8:50 AM,73.4,62.6,69,29.89,6.2,North,6.9,-,N/A,,Scattered Clouds,10,2013-06-14 05:50:00
9:20 AM,73.4,62.6,69,29.89,6.2,North,6.9,-,N/A,,Scattered Clouds,10,2013-06-14 06:20:00
9:50 AM,75.2,62.6,65,29.89,6.2,NNE,9.2,-,N/A,,Scattered Clouds,30,2013-06-14 06:50:00
10:20 AM,77.0,62.6,61,29.89,6.2,North,6.9,-,N/A,,Scattered Clouds,10,2013-06-14 07:20:00
10:50 AM,77.0,62.6,61,29.92,6.2,NNE,9.2,-,N/A,,Scattered Clouds,30,2013-06-14 07:50:00
11:20 AM,77.0,64.4,65,29.92,6.2,NNE,9.2,-,N/A,,Partly Cloudy,30,2013-06-14 08:20:00
11:50 AM,80.6,62.6,54,29.92,6.2,NNE,9.2,-,N/A,,Partly Cloudy,30,2013-06-14 08:50:00
12:20 PM,80.6,62.6,54,29.92,6.2,NNE,9.2,-,N/A,,Partly Cloudy,30,2013-06-14 09:20:00
12:50 PM,82.4,62.6,51,29.89,6.2,North,6.9,-,N/A,,Partly Cloudy,350,2013-06-14 09:50:00
1:20 PM,82.4,62.6,51,29.89,6.2,North,8.1,-,N/A,,Partly Cloudy,350,2013-06-14 10:20:00
1:50 PM,82.4,59.0,45,29.89,6.2,NNW,5.8,-,N/A,,Partly Cloudy,340,2013-06-14 10:50:00
2:20 PM,82.4,57.2,42,29.89,6.2,North,8.1,-,N/A,,Partly Cloudy,360,2013-06-14 11:20:00
2:50 PM,82.4,57.2,42,29.89,6.2,North,8.1,-,N/A,,Partly Cloudy,350,2013-06-14 11:50:00
3:20 PM,84.2,57.2,40,29.89,6.2,North,8.1,-,N/A,,Partly Cloudy,350,2013-06-14 12:20:00
3:50 PM,84.2,57.2,40,29.89,6.2,North,8.1,-,N/A,,Partly Cloudy,350,2013-06-14 12:50:00
4:20 PM,84.2,57.2,40,29.89,6.2,North,8.1,-,N/A,,Partly Cloudy,350,2013-06-14 13:20:00
4:50 PM,86.0,55.4,35,29.89,6.2,NNW,5.8,-,N/A,,Partly Cloudy,340,2013-06-14 13:50:00
5:20 PM,84.2,55.4,37,29.89,6.2,North,6.9,-,N/A,,Partly Cloudy,10,2013-06-14 14:20:00
5:50 PM,84.2,55.4,37,29.89,6.2,North,4.6,-,N/A,,Partly Cloudy,360,2013-06-14 14:50:00
6:20 PM,86.0,55.4,35,29.89,6.2,NNW,4.6,-,N/A,,Partly Cloudy,340,2013-06-14 15:20:00
6:50 PM,86.0,55.4,35,29.89,6.2,Calm,Calm,-,N/A,,Partly Cloudy,0,2013-06-14 15:50:00
7:20 PM,84.2,55.4,37,29.89,6.2,NNW,5.8,-,N/A,,Partly Cloudy,340,2013-06-14 16:20:00
7:50 PM,82.4,55.4,39,29.89,6.2,NNE,4.6,-,N/A,,Partly Cloudy,20,2013-06-14 16:50:00
8:20 PM,80.6,57.2,45,29.92,6.2,East,4.6,-,N/A,,Partly Cloudy,90,2013-06-14 17:20:00
8:50 PM,78.8,60.8,54,29.92,6.2,Calm,Calm,-,N/A,,Partly Cloudy,0,2013-06-14 17:50:00
9:20 PM,77.0,60.8,57,29.92,6.2,Calm,Calm,-,N/A,,Partly Cloudy,0,2013-06-14 18:20:00
9:50 PM,75.2,60.8,61,29.92,6.2,Calm,Calm,-,N/A,,Partly Cloudy,0,2013-06-14 18:50:00
10:20 PM,75.2,62.6,65,29.95,6.2,Calm,Calm,-,N/A,,Partly Cloudy,0,2013-06-14 19:20:00
10:50 PM,73.4,60.8,65,29.95,6.2,Calm,Calm,-,N/A,,Partly Cloudy,0,2013-06-14 19:50:00